Location: Rio Negrinho
(26.2394°S, 49.4999°W)
Time: 21:42:43
(UTC+00:00)

Intelsat 5-3 Rocket - Pass Details

Date: 07 June 2020
Orbit: 285 x 6133 km, 23.5° (Epoch: 10 July)

Event Time Altitude Azimuth Distance (km) Brightness Sun altitude
Exits shadow 09:00:51 14° 273° (W) 2,973 5.5 -13.3°
Maximum altitude 09:06:59 61° 350° (N) 770 3.1 -12.0°
Drops below altitude 10° 09:10:16 10° 71° (ENE) 1,581 6.3 -11.3°
Sets 09:11:47 0° 76° (ENE) 2,238 7.6 -11.0°
